User: anonymous   Login
Location: Thompson
(55.7500°N, 97.8670°W)
Time: 02:40:29
(UTC-05:00)
Language:

Cosmos 1833 Rocket - Orbit

View from above orbital plane
View from above orbital plane
View from above satellite
View from above satellite

Ground track
Ground track

The orbit data is extracted from the following two-line orbital elements,

1 17590U 87027B   14298.43874349  .00000331  00000-0  18989-3 0  8132
2 17590 071.0052 023.4880 0006600 318.8429 041.2196 14.16653515427341
Epoch (UTC): 25 October 2014 10:31:47
Eccentricity: 0.0006600
inclination: 71.0052°
perigee height: 832 km
apogee height: 841 km
right ascension of ascending node: 23.4880°
argument of perigee: 318.8429°
revolutions per day: 14.16653515
mean anomaly at epoch: 41.2196°
orbit number at epoch: 42734

The dashed part of the orbit path shows where the satellite is in the earth's shadow,  

DLR